Chehalis, WA
on Monday, November 5, 2012

Monday
Previous Day Next Day
Daily Summary
 ActualAverage (KOLM)Record (KOLM)
Temperature
Mean Temperature °F 46°F  
Max Temperature 59°F 53°F 64°F (1949)
Min Temperature 44°F 38°F 17°F (2003)
Degree Days
Heating Degree Days 14 19  
Month to date heating degree days 94  
Since 1 July heating degree days 888  
Cooling Degree Days 0 0  
Month to date cooling degree days 0  
Year to date cooling degree days 106  
Growing Degree Days2 (Base °F )  
Moisture
Dew Point 48°F   
Average Humidity 85    
Maximum Humidity 100    
Minimum Humidity 63    
Precipitation
Precipitation 0.01 in 0.26 in 1.88 in (2006)
Month to date precipitation 1.23  
Year to date precipitation 35.14  
Wind
Wind Speed 3 mph   
Max Wind Speed 12 mph   
Max Gust Speed mph   
Visibility 10 miles   
Events     

Key: T is trace of precipitation, MM is missing value
Source: NWS Daily Summary
Time(PST)TemperatureDew PointHumidity Pressure Visibility Wind DirectionWind SpeedGust SpeedPrecipitationEvents Conditions
12:15 AM 59.0°F 59.0°F 100% 30.33 in 10.0 miles Calm Calm - N/A   Unknown
12:35 AM 59.0°F 57.2°F 94% 30.34 in 10.0 miles West 4.6 mph - N/A   Unknown
12:55 AM 59.0°F 57.2°F 94% 30.35 in 9.0 miles NNW 5.8 mph - N/A   Unknown
1:15 AM 57.2°F 55.4°F 94% 30.34 in 10.0 miles Calm Calm - N/A   Unknown
1:35 AM 57.2°F 55.4°F 94% 30.35 in 10.0 miles Calm Calm - N/A   Unknown
1:55 AM 57.2°F 55.4°F 94% 30.35 in 10.0 miles SW 3.5 mph - 0.01 in   Unknown
2:15 AM 57.2°F 55.4°F 94% 30.36 in 10.0 miles Calm Calm - N/A   Unknown
2:35 AM 57.2°F 55.4°F 94% 30.37 in 5.0 miles Calm Calm - N/A   Mist
2:55 AM 55.4°F 55.4°F 100% 30.37 in 6.0 miles NNE 3.5 mph - N/A   Mist
3:15 AM 55.4°F 55.4°F 100% 30.37 in 10.0 miles NNW 4.6 mph - N/A   Unknown
3:35 AM 55.4°F 53.6°F 94% 30.37 in 10.0 miles NW 4.6 mph - N/A   Unknown
3:55 AM 55.4°F 50.0°F 82% 30.38 in 10.0 miles NW 4.6 mph - N/A   Unknown
4:35 AM 53.6°F 48.2°F 82% 30.38 in 10.0 miles NW 4.6 mph - N/A   Unknown
4:55 AM 53.6°F 48.2°F 82% 30.38 in 10.0 miles NW 3.5 mph - N/A   Unknown
5:15 AM 51.8°F 48.2°F 88% 30.39 in 10.0 miles Calm Calm - N/A   Unknown
5:35 AM 51.8°F 48.2°F 88% 30.38 in 10.0 miles Calm Calm - N/A   Unknown
5:55 AM 50.0°F 48.2°F 94% 30.40 in 10.0 miles Calm Calm - N/A   Unknown
6:15 AM 48.2°F 48.2°F 100% 30.38 in 10.0 miles West 3.5 mph - N/A   Unknown
6:35 AM 48.2°F 46.4°F 93% 30.38 in 10.0 miles WSW 3.5 mph - N/A   Unknown
6:55 AM 46.4°F 46.4°F 100% 30.39 in 10.0 miles Calm Calm - N/A   Unknown
7:35 AM 48.2°F 46.4°F 93% 30.40 in 5.0 miles Calm Calm - N/A   Mist
7:55 AM 46.4°F 46.4°F 100% 30.39 in 6.0 miles Calm Calm - N/A   Mist
8:15 AM 48.2°F 48.2°F 100% 30.39 in 8.0 miles Calm Calm - N/A   Unknown
8:35 AM 48.2°F 48.2°F 100% 30.40 in 8.0 miles Calm Calm - N/A   Unknown
8:55 AM 50.0°F 48.2°F 94% 30.41 in 9.0 miles Calm Calm - N/A   Unknown
9:35 AM 51.8°F 48.2°F 88% 30.39 in 7.0 miles Calm Calm - N/A   Unknown
9:55 AM 53.6°F 48.2°F 82% 30.39 in 9.0 miles ENE 3.5 mph - N/A   Unknown
10:15 AM 53.6°F 50.0°F 88% 30.39 in 10.0 miles Calm Calm - N/A   Unknown
10:35 AM 55.4°F 50.0°F 82% 30.40 in 10.0 miles Calm Calm - N/A   Unknown
10:55 AM 55.4°F 50.0°F 82% 30.40 in 10.0 miles NNE 6.9 mph - N/A   Unknown
11:15 AM 55.4°F 50.0°F 82% 30.39 in 9.0 miles North 3.5 mph - N/A   Unknown
11:35 AM 55.4°F 50.0°F 82% 30.39 in 10.0 miles North 5.8 mph - N/A   Unknown
11:55 AM 55.4°F 50.0°F 82% 30.38 in 9.0 miles North 4.6 mph - N/A   Unknown
12:35 PM 57.2°F 50.0°F 77% 30.36 in 10.0 miles NNE 3.5 mph - N/A   Unknown
12:55 PM 59.0°F 50.0°F 72% 30.35 in 10.0 miles Calm Calm - N/A   Unknown
1:15 PM 59.0°F 50.0°F 72% 30.34 in 10.0 miles North 6.9 mph - N/A   Unknown
1:35 PM 59.0°F 48.2°F 67% 30.34 in 8.0 miles North 8.1 mph - N/A   Unknown
1:55 PM 59.0°F 48.2°F 67% 30.34 in 10.0 miles North 9.2 mph - N/A   Unknown
2:15 PM 59.0°F 46.4°F 63% 30.32 in 10.0 miles NNE 11.5 mph - N/A   Unknown
2:35 PM 59.0°F 46.4°F 63% 30.33 in 10.0 miles NNE 10.4 mph - N/A   Unknown
2:55 PM 59.0°F 46.4°F 63% 30.31 in 10.0 miles NNE 10.4 mph - N/A   Unknown
3:15 PM 59.0°F 46.4°F 63% 30.31 in 10.0 miles NE 8.1 mph - N/A   Unknown
3:35 PM 59.0°F 46.4°F 63% 30.30 in 10.0 miles NNE 8.1 mph - N/A   Unknown
3:55 PM 57.2°F 46.4°F 67% 30.31 in 5.0 miles North 4.6 mph - N/A   Haze
4:15 PM 55.4°F 44.6°F 67% 30.30 in 10.0 miles North 9.2 mph - N/A   Unknown
4:35 PM 55.4°F 44.6°F 67% 30.30 in 10.0 miles NNE 10.4 mph - N/A   Unknown
4:55 PM 53.6°F 44.6°F 72% 30.29 in 10.0 miles NNE 9.2 mph - N/A   Unknown
5:15 PM 53.6°F 44.6°F 72% 30.28 in 10.0 miles NNE 9.2 mph - N/A   Unknown
5:35 PM 51.8°F 44.6°F 76% 30.28 in 10.0 miles North 3.5 mph - N/A   Unknown
5:55 PM 50.0°F 44.6°F 82% 30.28 in 10.0 miles North 5.8 mph - N/A   Unknown
6:15 PM 50.0°F 44.6°F 82% 30.28 in 10.0 miles North 3.5 mph - N/A   Unknown
6:35 PM 50.0°F 44.6°F 82% 30.27 in 10.0 miles NNE 6.9 mph - N/A   Unknown
6:55 PM 48.2°F 44.6°F 87% 30.27 in 10.0 miles Calm Calm - N/A   Unknown
7:15 PM 48.2°F 44.6°F 87% 30.25 in 10.0 miles North 5.8 mph - N/A   Unknown
7:35 PM 48.2°F 44.6°F 87% 30.25 in 10.0 miles North 5.8 mph - N/A   Unknown
7:55 PM 48.2°F 44.6°F 87% 30.24 in 10.0 miles North 4.6 mph - N/A   Unknown
8:15 PM 46.4°F 44.6°F 93% 30.24 in 10.0 miles NNE 5.8 mph - N/A   Unknown
8:35 PM 48.2°F 44.6°F 87% 30.24 in 10.0 miles Calm Calm - N/A   Unknown
8:55 PM 48.2°F 44.6°F 87% 30.23 in 10.0 miles Calm Calm - N/A   Unknown
9:15 PM 48.2°F 44.6°F 87% 30.22 in 10.0 miles NNE 3.5 mph - N/A   Unknown
9:35 PM 46.4°F 44.6°F 93% 30.21 in 10.0 miles Calm Calm - N/A   Unknown
9:55 PM 46.4°F 44.6°F 93% 30.21 in 10.0 miles Calm Calm - N/A   Unknown
10:15 PM 46.4°F 44.6°F 93% 30.21 in 10.0 miles Calm Calm - N/A   Unknown
10:35 PM 46.4°F 44.6°F 93% 30.20 in 10.0 miles Calm Calm - N/A   Unknown
10:55 PM 46.4°F 44.6°F 93% 30.19 in 10.0 miles Calm Calm - N/A   Unknown
11:15 PM 44.6°F 44.6°F 100% 30.19 in 10.0 miles Calm Calm - N/A   Unknown
11:35 PM 46.4°F 44.6°F 93% 30.18 in 10.0 miles Calm Calm - N/A   Unknown
11:55 PM 46.4°F 44.6°F 93% 30.17 in 10.0 miles Calm Calm - N/A   Unknown
Moon Phase
Nov. 05 Nov. 06 Nov. 13 Nov. 20 Nov. 28
Sunrise:07:00 AM (PST) Moon Rise:10:33 PM (PST)11/5
Sunset:04:49 PM (PST) Moon Set:12:23 PM (PST)11/5

Copyright © 2014 The Weather Underground, Inc.